Theta_e
313 313 311 308 305 311 306 309 306 309 314 319 325 323 327 326 328 328 335 338 339 341 343 345 348 351 354 362 364 367 368 367
313 314 312 309 312 304 305 300 301 307 310 312 320 320 325 325 326 328 332 336 339 339 342 345 349 352 355 359 364 367 368 368
313 309 308 307 305 307 308 307 303 302 308 321 323 326 325 326 327 328 328 334 338 339 341 344 347 350 353 356 363 366 367 368
307 314 314 311 307 307 302 305 307 308 309 321 323 325 328 327 328 329 330 331 336 340 341 342 343 347 350 354 356 363 366 367
304 309 313 309 309 309 307 307 307 304 307 321 326 322 324 327 328 330 331 336 337 337 340 342 343 345 348 351 354 361 364 364
302 306 310 308 308 309 307 303 305 308 312 317 321 323 325 327 328 331 339 341 339 343 339 342 344 346 347 349 353 356 362 362
308 309 311 310 308 308 307 308 305 308 312 317 320 323 326 329 332 332 336 337 344 339 347 346 346 347 348 350 352 355 358 360
307 309 309 308 309 309 309 308 309 309 309 319 323 325 326 323 325 329 332 335 342 345 347 354 351 350 349 351 352 355 355 358
303 308 308 303 309 310 309 310 309 306 312 319 319 320 324 332 331 330 330 332 334 344 347 350 356 355 351 352 357 356 359 359
305 308 297 309 315 313 311 312 312 313 315 317 318 320 322 326 327 329 333 333 338 333 344 351 351 354 360 356 358 360 359 362
302 302 306 308 312 312 310 312 317 314 318 318 320 320 320 324 325 328 331 337 337 334 332 348 349 356 359 360 358 359 359 366
304 300 298 311 314 320 320 308 320 322 320 320 322 315 321 326 325 326 328 331 337 334 333 339 352 354 359 358 360 358 361 362
303 302 305 318 320 322 308 312 326 326 326 325 322 327 334 333 333 327 331 329 335 350 349 353 355 356 358 359 359 362 365 366
306 303 300 321 319 312 322 328 327 328 328 328 330 332 332 332 334 338 342 337 342 352 363 361 360 364 360 360 365 368 366 366
309 308 322 325 324 328 329 328 328 327 328 329 328 329 330 336 339 337 340 346 345 354 362 365 371 365 361 366 366 365 363 363
310 319 322 324 326 327 328 328 334 334 333 334 330 335 337 338 339 341 348 349 353 353 354 357 364 364 365 363 365 363 363 361
311 322 321 322 324 325 328 331 331 331 334 333 335 336 338 339 342 344 347 349 353 353 354 359 363 362 364 363 362 358 353 351
312 316 319 322 325 326 323 324 327 327 328 330 328 327 328 334 340 341 341 345 344 343 346 351 353 354 358 360 355 350 345 344
314 313 313 318 319 321 320 321 321 322 323 324 326 328 329 327 328 330 340 345 346 348 350 351 352 353 356 356 354 350 347 344
Wind_Speed
31 22 26 26 26 25 26 23 19 17 23 23 19 18 24 26 9 13 25 23 22 22 21 19 22 22 21 20 21 20 20 16
24 26 28 30 18 25 20 26 25 21 21 11 20 21 23 18 22 15 19 21 21 19 21 19 19 19 20 18 21 21 20 18
25 29 26 20 23 24 21 20 17 18 16 15 16 24 22 20 20 21 15 17 20 21 20 19 18 19 19 20 19 20 20 18
25 26 29 28 28 28 17 22 18 19 15 13 13 14 20 15 15 15 13 15 17 21 21 21 21 21 21 20 20 20 19 18
23 24 25 31 28 25 26 22 19 19 16 19 7 12 18 14 16 17 16 10 10 18 21 22 21 20 22 21 22 20 19 19
19 20 17 25 29 28 26 19 19 19 19 25 12 20 16 12 14 7 5 6 7 5 17 23 22 21 22 23 22 21 20 20
28 30 26 26 29 28 27 25 23 21 21 22 23 12 16 8 5 6 6 9 8 6 4 17 19 20 20 21 21 21 20 21
25 28 29 27 27 28 30 29 28 24 24 18 16 17 13 19 19 12 11 8 11 12 9 6 15 20 21 19 21 18 20 21
19 24 24 27 27 24 23 25 22 21 22 15 15 15 12 7 8 13 16 12 12 13 12 10 9 17 20 20 17 19 17 18
16 17 24 15 20 25 22 18 24 23 18 17 18 17 17 13 12 9 9 12 8 8 12 12 12 17 15 18 17 17 16 17
14 17 16 21 20 17 17 22 19 18 15 17 18 19 20 18 16 13 15 11 10 11 14 13 14 13 15 16 18 16 17 14
16 20 25 16 20 9 4 8 7 8 7 8 10 7 8 16 16 15 15 11 9 12 12 13 15 17 17 16 16 18 16 16
14 14 18 1 13 8 11 6 5 6 6 7 9 9 13 17 19 13 12 14 11 3 4 11 15 16 17 16 16 14 12 13
12 15 13 16 10 5 2 4 4 4 5 8 10 13 12 14 14 5 8 7 5 4 1 9 12 13 16 15 12 12 12 13
8 7 13 1 11 9 6 4 3 2 6 6 11 16 14 4 6 3 4 7 4 5 10 7 7 11 13 10 12 12 13 13
9 2 11 14 11 10 7 7 12 13 12 11 5 7 12 8 3 5 7 11 10 12 14 10 9 10 11 12 11 12 13 14
16 13 13 10 10 9 13 17 16 19 19 21 21 20 15 11 12 10 10 12 12 12 11 11 12 12 11 13 14 14 11 12
2 10 10 15 16 20 20 22 19 18 18 18 18 13 13 13 13 11 13 13 11 12 12 10 11 11 11 11 14 13 12 9
4 15 19 17 21 24 21 21 21 21 18 17 16 10 11 6 9 10 14 12 12 13 11 10 10 10 9 10 12 14 12 13
Wind_Direction
227 210 228 213 224 230 240 240 247 238 221 233 181 217 191 205 243 226 176 184 184 184 187 185 182 185 184 173 181 185 186 192
207 225 215 228 218 220 232 238 242 239 251 224 190 140 228 188 200 231 186 184 180 186 184 184 181 181 181 178 180 183 187 189
206 201 218 209 228 236 230 240 246 245 243 235 193 181 190 198 199 225 223 184 181 182 181 178 177 178 184 183 178 184 189 190
243 214 207 222 212 231 237 223 237 258 245 234 236 224 187 201 213 216 224 219 192 180 175 175 179 179 183 185 189 188 188 190
239 244 213 210 222 222 235 247 244 238 244 260 155 196 275 204 207 210 221 208 195 182 173 175 181 180 184 187 190 189 190 192
235 235 228 218 215 221 230 230 238 245 229 256 201 182 221 183 240 210 170 204 157 156 179 185 182 183 184 186 189 191 189 195
220 248 228 237 215 216 224 242 241 236 240 223 253 227 193 227 204 233 232 159 147 185 211 183 181 185 187 184 185 188 191 196
232 222 241 241 227 220 220 226 246 253 252 249 243 252 245 179 229 207 210 216 176 176 196 219 185 182 186 187 185 186 190 196
238 232 236 238 239 237 218 220 231 241 251 265 258 262 278 244 234 220 203 201 221 175 188 203 200 178 183 190 180 188 187 193
237 230 236 240 228 238 253 240 218 222 234 251 264 270 271 268 281 283 233 214 206 235 183 191 208 176 173 183 191 184 191 188
230 229 241 246 238 231 236 245 253 262 256 236 225 239 255 258 256 250 247 268 223 228 257 184 192 178 174 179 190 192 185 186
214 228 226 218 227 186 161 246 328 1 343 326 344 299 282 234 251 252 253 253 228 221 237 223 183 178 170 182 186 195 189 184
220 226 238 314 153 130 212 174 75 20 348 327 293 285 316 313 312 238 262 235 254 215 242 181 174 172 168 178 184 185 175 172
224 210 224 162 152 204 46 109 73 26 333 319 301 292 280 276 275 306 327 263 167 172 63 146 164 151 162 171 158 158 157 161
251 246 110 90 72 68 130 115 73 354 310 309 291 278 260 65 54 89 15 19 349 127 100 95 94 136 146 144 141 148 147 146
246 214 116 126 125 127 118 128 47 40 32 15 254 58 59 52 127 92 77 73 63 83 82 84 90 104 115 126 133 139 134 122
230 147 110 125 119 127 111 89 77 64 46 50 46 37 44 53 54 66 75 71 67 69 77 78 83 94 99 111 108 104 102 104
13 356 311 140 134 100 83 72 81 84 75 66 55 51 20 33 44 50 68 72 79 78 83 93 93 104 104 104 112 116 116 108
79 66 355 79 80 79 75 83 68 60 62 81 86 82 75 351 31 45 53 72 77 87 89 101 112 113 119 121 130 139 137 125